ONEWEB-0140

Last updated on Mon Jan 18 2021 00:02:03 GMT+0000 (Coordinated Universal Time)

1 47286U 20100AE 21017.58334491 -.01470491 00000-0 -10478+0 0 9995 2 47286 87.3933 29.0996 0009931 165.1087 356.5856 15.07942661 1906

Satellite not in orbit